Weather in Nizhnebruslanovo

Russia / Lipetsk Oblast     52°54′09″N   39°01′53″E
temp.,
°C
wind,
m/s
gust,
m/s
humid.,
%
clouds,
%
prec.,
mm/h
press.,
hPa
HPBL,
m
20 june, sun
sun2000:00+16se22850 0.0 102411
03:00+15ese22860 0.0 102511
06:00+16ese23830 0.0 102493
09:00+21ese34680 0.0 1024499
12:00+24ese45572 0.0 1023988
15:00+26se455274 0.0 10221186
18:00+25ese3467100 0.0 1021178
21:00+19ese3382100 0.0 102224
21 june, mon
mon2100:00+18ese3385100 0.0 102234
03:00+17ese3489100 0.0 102149
06:00+18ese268794 0.0 1022160
09:00+23ese466935 0.0 1022457
12:00+26ese5659100 0.0 1021738
15:00+27se565799 0.0 10201092
18:00+25ese3774100 0.0 1020320
21:00+21ese358576 0.0 102166
22 june, tue
tue2200:00+20se35917 0.0 102176
03:00+18ese35925 0.0 102171
06:00+19ese36875 0.0 1022160
09:00+25ese46680 0.0 1021422
12:00+28ese45542 0.0 1021850
15:00+29ese445070 0.0 10211002
18:00+28ese35641 0.0 1020241
21:00+22ese337619 0.0 102129
23 june, wed
wed2300:00+20e23785 0.0 102119
03:00+19e33825 0.0 102129
06:00+20e36855 0.0 1021143
09:00+26e46695 0.0 1021436
12:00+29e455661 0.0 1020928
15:00+30se345192 0.0 10201319
18:00+29ese246494 0.0 1020221
21:00+23ese227732 0.0 102011
24 june, thu
thu2400:00+21e227932 0.0 102011
03:00+20ene228599 0.0 102111
06:00+22e228589 0.0 102186
09:00+27ese226913 0.0 1021444
12:00+30se225691 0.0 10201116
15:00+31se125099 0.0 10201554
18:00+31se125699 0.0 10201722
21:00+24ese11736 0.0 102011